Location: Newark
(2.6153°S, 29.9989°E)
Time: 14:16:48
(UTC+00:00)

OTV 5 (USA 277) - Visible Passes

Search period start: 20 August 2019 00:00
Search period end: 30 August 2019 00:00
Orbit: 305 x 329 km, 54.5° (Epoch: 11 August)

Date Brightness Start Highest point End Pass type
(mag) Time Alt. Az. Time Alt. Az. Time Alt. Az.
20 Aug ? 16:50:28 10° SSW 16:53:09 57° ESE 16:55:20 14° NE visible
21 Aug ? 17:05:25 10° WSW 17:07:36 22° WNW 17:09:47 10° N visible
24 Aug ? 03:21:39 10° N 03:23:41 19° ENE 03:25:46 10° ESE visible
25 Aug ? 03:35:31 10° NW 03:38:09 66° WSW 03:40:51 10° SSE visible
27 Aug ? 02:34:14 25° ESE 02:34:14 25° ESE 02:35:38 10° SE visible
